Terminal Aerodrome Forecast
Issued by NWS Cleveland, OH

Home | Current Version | Previous Version | Graphics & Text | Print | Product List | Glossary On
Versions: 1 2 3 4 5 6 7 8 9 10 11 12 13 14 15 16 17 18 19 20 21 22 23 24 25 26 27 28
000
FTUS41 KCLE 141600 AAB
TAFTOL
TAF AMD
KTOL 141623Z 1416/1512 26015G25KT P6SM SCT015 OVC050
      TEMPO 1416/1420 4SM SHRA BR OVC015
     FM142000 31012G20KT 6SM -DZ BR OVC015
     FM150200 33012G20KT 4SM -DZ BR OVC008
     FM150800 33018G28KT P6SM OVC012=

USA.gov is the U.S. government's official web portal to all federal, state and local government web resources and services.